User: anonymous   Login
Location: Unspecified
(0.0000°N, 0.0000°E)
Time: 16:43:43
(UTC+00:00)
Language:

COSMOS 2481 - Orbit

View from above orbital plane
View from above orbital plane
View from above satellite
View from above satellite

Ground track
Ground track

The orbit data is extracted from the following two-line orbital elements,

1 38733U 12041A   19017.19765177  .00000031  00000-0  15359-3 0  9993
2 38733  82.4772 323.4324 0017520 211.4861 148.5175 12.42375933293560
Epoch (UTC): 17 January 2019 04:44:37
Eccentricity: 0.0017520
inclination: 82.4772°
perigee height: 1483 km
apogee height: 1510 km
right ascension of ascending node: 323.4324°
argument of perigee: 211.4861°
revolutions per day: 12.42375933
mean anomaly at epoch: 148.5175°
orbit number at epoch: 29356

The dashed part of the orbit path shows where the satellite is in the earth's shadow,  

DLR